Location: Mangatainoka
(40.4333°S, 175.8667°E)
Time: 21:02:28
(UTC+00:00)

Daily predictions for brighter satellites

Satellite Brightness Start Highest point End
(mag) Time Altitude Azimuth Time Altitude Azimuth Time Altitude Azimuth
ARIANE 5 R/B 3.5 12:02:20 10° SSE 12:05:34 47° SSE 12:05:34 47° SSE
CZ-2D R/B 4.2 12:16:27 16° E 12:18:15 18° ESE 12:21:49 10° SSE
Lacrosse 4 Rocket 3.6 12:17:44 10° SW 12:19:23 19° WSW 12:19:23 19° WSW
SL-4 R/B 4.4 12:19:14 10° SW 12:22:30 22° SSE 12:24:39 15° ESE
NOSS 3-1 (A) 3.8 12:19:54 10° SW 12:24:55 46° W 12:24:55 46° W
USA 234 4.3 12:36:19 30° WNW 12:36:19 30° WNW 12:40:42 10° WSW
Cosmos 2341 Rocket 4.5 12:29:19 10° SSW 12:35:28 48° W 12:35:49 48° W
IDEFIX/ARIANE 42P 3.0 12:42:12 53° ESE 12:42:15 54° ESE 12:47:23 10° S
Cosmos 407 Rocket 4.4 12:37:45 10° S 12:42:44 40° ESE 12:43:09 40° ESE
Cosmos 1140 Rocket 3.7 12:38:32 10° SSW 12:43:22 66° SE 12:43:22 66° SE
SeaSat 1 3.7 12:45:13 31° E 12:46:18 34° SE 12:50:45 10° S
Cosmos 1697 Rocket 3.3 12:48:05 45° E 12:48:05 45° E 12:52:55 10° SE
Cosmos 2297 Rocket 2.4 12:44:37 10° SSW 12:50:18 62° ESE 12:50:42 60° E
IRIDIUM 103 4.4 12:52:27 74° SSE 12:52:27 74° SSE 12:57:18 10° S
MSX 4.0 12:51:39 62° E 12:52:06 64° ESE 12:57:50 10° S
ADEOS II 3.7 12:57:13 23° E 12:58:50 28° ESE 13:03:16 10° S
Cosmos 2227 Rocket 3.5 12:54:08 10° S 12:59:23 36° ESE 13:01:30 27° E
Cosmos 1980 Rocket 3.5 13:02:50 28° E 13:02:50 28° E 13:07:22 10° SE
ALOS 4.4 13:02:34 17° E 13:03:59 19° ESE 13:07:16 10° SSE
Cosmos 1821 Rocket 4.3 13:00:55 10° SSW 13:07:12 54° W 13:07:28 54° W
Resurs 1-4 Rocket 2.6 13:06:38 48° E 13:07:13 51° ESE 13:12:24 10° S
Cosmos-2242 4.0 13:09:34 45° S 13:09:34 45° S 13:12:34 10° S
CZ-2C R/B 3.4 13:14:26 55° WSW 13:14:26 55° WSW 13:18:53 10° SSW
H-2A R/B 4.0 13:16:22 20° SW 13:16:22 20° SW 13:18:02 10° SW
Cosmos 1238 Rocket 4.4 13:24:17 31° SSE 13:24:17 31° SSE 13:26:28 10° SSE
Meteor 1-5 Rocket 4.0 13:17:27 10° S 13:22:46 86° SE 13:22:46 86° SE
Cosmos 1624 Rocket 4.5 13:23:18 51° E 13:23:18 51° E 13:28:17 10° SSE
ALOS 2 4.2 13:31:00 10° SSW 13:34:18 25° WSW 13:34:18 25° WSW
ATLAS 3B R/B 3.3 13:32:58 10° SW 13:37:31 35° W 13:37:31 35° W
NPP 4.1 13:42:22 47° W 13:42:22 47° W 13:47:12 10° SSW
USA 59 Rocket 1.5 13:35:01 10° SW 13:44:20 63° WNW 13:45:57 53° NNW
Cosmos 1190 Rocket 4.1 13:40:10 10° SSW 13:45:33 74° ESE 13:46:14 64° NE
Meteor 2-13 Rocket 4.3 13:51:45 64° NNW 13:52:41 79° W 13:58:53 10° S
SL-16 R/B 4.3 13:51:58 13° ENE 13:54:08 16° E 13:57:25 10° ESE
USA 229 DEB 3.7 13:49:29 10° SW 13:55:09 48° WNW 13:55:09 48° WNW
USA 229 3.7 13:49:33 10° SW 13:55:16 48° WNW 13:55:16 48° WNW
CZ-2D R/B 2.2 13:57:43 61° WNW 13:57:44 61° WNW 14:03:03 10° SSW
Cosmos 1605 Rocket 3.9 13:52:09 10° S 13:58:29 89° E 14:00:07 53° N
SL-4 R/B 3.9 13:57:21 10° SW 13:58:48 21° SW 13:58:48 21° SW
Cosmos 1371 Rocket 3.9 14:02:25 66° W 14:02:48 69° WSW 14:08:04 10° SSE
Cosmos 2369 3.8 14:07:07 54° NNE 14:08:12 67° ENE 14:13:55 10° SSE
Cosmos 2263 Rocket 2.7 14:04:28 10° SSW 14:10:10 59° ESE 14:13:56 21° NE
Cosmos 1727 Rocket 4.2 14:10:08 41° NNE 14:12:23 67° E 14:18:44 10° SSE
Cosmos 1733 4.2 14:10:11 10° S 14:12:23 38° S 14:12:23 38° S
Cosmos 1452 Rocket 4.4 14:12:44 35° NE 14:14:05 41° ENE 14:19:03 10° SSE
H-2A R/B 3.9 14:10:57 10° SSW 14:13:52 25° WSW 14:13:52 25° WSW
Cosmos 2251 Rocket 4.1 14:09:29 10° SSW 14:14:01 40° W 14:14:01 40° W
CZ-2C R/B 4.3 14:15:28 10° ENE 14:19:17 26° ESE 14:23:12 10° S
BREEZE-M DEB (TANK) 4.4 14:21:12 21° ENE 14:21:12 21° ENE 14:22:35 10° E
IDEFIX/ARIANE 42P 4.3 14:22:55 18° W 14:22:55 18° W 14:25:39 10° SW
Cosmos 2221 2.9 14:22:40 49° WSW 14:22:40 49° WSW 14:26:36 10° S
Cosmos 1400 Rocket 2.7 14:23:30 77° SE 14:23:30 77° SE 14:27:13 10° SSE
SeaSat 1 3.6 14:24:52 28° W 14:24:52 28° W 14:28:04 10° SW
Cosmos 1766 Rocket 3.6 14:19:20 10° S 14:23:44 72° E 14:24:24 60° NE
METEOR-M 4.5 14:21:29 28° NE 14:24:18 63° ESE 14:29:39 10° S
Cosmos 2056 Rocket 4.1 14:25:08 39° W 14:26:06 42° WSW 14:31:14 10° S
Meteor 2-6 Rocket 4.3 14:25:11 52° NW 14:26:19 64° WSW 14:32:01 10° S
BlueWalker 3 2.6 14:26:17 45° SW 14:26:21 45° SW 14:30:01 10° SE
Cosmos 676 Rocket 3.9 14:22:30 10° SSW 14:27:54 78° WNW 14:29:18 50° N
Cosmos 1697 Rocket 4.1 14:29:48 22° W 14:31:40 26° SW 14:36:24 10° S
Cosmos 1805 4.1 14:30:09 10° S 14:33:37 41° E 14:34:28 34° ENE
Okean 1 3.3 14:33:57 61° SW 14:33:57 61° SW 14:37:24 10° S
Cosmos 2297 Rocket 4.0 14:30:01 10° WSW 14:32:26 17° W 14:32:26 17° W
Meteor 1-11 Rocket 4.2 14:29:00 10° S 14:34:59 62° ESE 14:39:15 19° NNE
Meteor 1-27 Rocket 4.4 14:32:38 27° NNE 14:35:40 53° E 14:41:29 10° SSE
Cosmos 1461 4.5 14:35:07 22° WSW 14:35:49 24° SW 14:39:11 10° S
H-2A R/B 3.5 14:32:01 10° NE 14:36:48 36° ESE 14:41:31 10° S
Envisat 2.9 14:36:03 48° N 14:37:30 76° WNW 14:42:39 10° SSW
CZ-2C R/B 2.7 14:32:17 10° SSE 14:37:53 77° ENE 14:39:55 40° N
ADEOS II 2.7 14:38:04 37° WNW 14:38:14 37° W 14:43:09 10° SSW
ALOS 2.7 14:40:44 43° W 14:40:44 43° W 14:45:09 10° SSW
Meteor 2-8 Rocket 4.3 14:34:41 10° S 14:40:49 77° W 14:43:29 36° N
Meteor 1-14 Rocket 4.3 14:35:19 10° SSW 14:41:10 64° W 14:43:02 42° NNW
Cosmos 2227 Rocket 3.0 14:38:18 10° SW 14:43:14 33° WNW 14:43:14 33° WNW
Cosmos 1536 2.5 14:39:29 10° S 14:43:19 79° W 14:43:27 78° NW
Cosmos 1607 4.1 14:42:13 37° N 14:44:41 66° ENE 14:50:51 10° SE
Cosmos 1980 Rocket 2.9 14:44:35 32° WNW 14:46:24 41° WSW 14:51:44 10° S
Resurs 1-4 Rocket 3.6 14:47:42 20° W 14:47:42 20° W 14:51:07 10° SW
SME Rocket 3.3 14:49:48 44° W 14:49:48 44° W 14:53:14 10° SSW
Cosmos 2123 Rocket 4.3 14:45:52 24° NNE 14:49:41 64° E 14:55:52 10° SSE
USA 215 3.9 14:44:27 10° ESE 14:50:46 45° NE 14:54:00 27° N
Cosmos 1842 Rocket 3.5 14:50:57 51° NNW 14:52:02 80° W 14:56:35 10° S
Cosmos 1356 Rocket 3.9 14:52:21 35° NNE 14:53:39 52° E 14:57:30 10° SSE
CRYOSAT 2 4.3 14:49:03 10° S 14:54:00 75° W 14:55:44 41° NNW
USA 306 4.4 14:55:26 12° S 14:55:26 12° S 14:55:44 10° S
SJ 16-02 1.6 14:50:34 10° SSW 14:54:56 65° ESE 14:58:13 17° NNE
Cosmos 2084 3.3 14:54:53 56° NW 14:55:44 89° SW 15:00:04 10° SE
Cosmos 1000 Rocket 4.5 14:55:20 32° NNW 14:58:26 75° W 15:04:49 10° S
Sich 1 4.3 14:54:35 10° S 14:58:36 37° ESE 15:02:35 10° NE
Cosmos 2278 3.9 14:58:04 30° N 15:00:56 67° ENE 15:06:37 10° SSE
Cosmos 2100 Rocket 4.0 14:55:10 10° S 15:01:31 81° W 15:05:56 21° N
USA 307 3.0 15:04:02 32° SSW 15:04:02 32° SSW 15:06:33 10° SE
Okean 3 Rocket 3.5 15:00:41 10° S 15:05:18 83° W 15:07:32 30° N
Cosmos 2219 3.5 14:59:52 10° SW 15:05:24 47° WNW 15:07:52 30° NNW
Cosmos 1110 Rocket 4.2 15:04:22 35° NW 15:06:21 58° WSW 15:11:35 10° SSE
YAOGAN 6 3.6 15:06:50 16° NE 15:08:49 35° ESE 15:11:37 10° S
Cosmos 1151 Rocket 4.2 15:06:11 15° NNE 15:09:19 40° E 15:13:27 10° SSE
Cosmos 2333 Rocket 3.2 15:14:01 15° N 15:18:32 43° ENE 15:23:59 10° SE
SL-16 R/B 4.4 15:16:56 10° SE 15:22:00 26° E 15:26:59 10° NNE
Cosmos 2082 4.0 15:19:27 10° SW 15:24:57 46° WNW 15:29:07 17° N
Cosmos 2173 Rocket 4.2 15:20:41 10° SSW 15:26:43 53° W 15:31:07 19° NNW
Cosmos 2322 Rocket 2.6 15:23:32 17° N 15:27:50 60° ENE 15:33:29 10° SSE
Cosmos 1346 Rocket 3.1 15:24:43 10° SSW 15:28:20 43° W 15:29:35 32° NW
Meteor 2-9 Rocket 4.5 15:24:41 10° SSW 15:29:55 45° W 15:33:07 21° NNW
Cosmos 1975 2.7 15:26:18 10° S 15:30:12 85° E 15:33:31 14° N
CZ-4 R/B 3.9 15:25:25 10° NNE 15:30:25 85° WNW 15:35:31 10° SSW
Cosmos 2360 Rocket 2.9 15:26:17 14° N 15:30:58 51° ENE 15:36:27 10° SSE
USA 59 Rocket 3.2 15:30:02 10° W 15:31:42 11° W 15:32:00 11° W
SL-16 R/B 2.3 15:33:49 22° NW 15:37:32 69° WSW 15:43:16 10° SSE
SL-12 R/B(2) 4.3 15:30:20 10° SW 15:37:55 44° WNW 15:44:46 10° N
PAYLOAD A 4.2 15:36:05 11° N 15:41:07 59° W 15:46:32 10° SSW
Cosmos 1741 Rocket 4.3 15:36:55 10° SSW 15:42:00 46° WNW 15:47:03 10° N
Cosmos 1766 3.1 15:38:39 10° S 15:42:17 80° E 15:45:53 10° N
Lacrosse 5 rocket 3.0 15:39:47 10° SSW 15:42:58 31° SE 15:46:05 10° ENE
Cosmos 1674 3.0 15:46:00 26° WNW 15:47:04 34° WSW 15:50:00 10° S
Cosmos 1408 Rocket 3.9 15:44:21 10° SSW 15:48:34 46° W 15:52:02 14° NNW
Cosmos 1802 Rocket 4.3 15:45:42 10° SSW 15:51:36 46° W 15:57:25 10° NNW
Cosmos 1939 Rocket 3.1 15:49:28 10° NNE 15:53:11 66° ESE 15:56:56 10° S
Cosmos 2016 Rocket 4.2 15:47:11 10° SSW 15:53:20 55° W 15:59:21 10° NNW
Cosmos 2263 Rocket 3.6 15:49:37 10° SW 15:53:31 19° W 15:55:30 16° NW
Cosmos 1743 Rocket 3.5 15:52:46 10° SSW 15:57:07 68° W 16:01:25 10° N
CZ-2C R/B 3.1 15:54:11 16° NNW 15:57:14 31° W 16:01:27 10° SSW
Cosmos 1066 Rocket 4.3 15:53:04 10° N 15:58:42 84° E 16:04:14 10° S
Gblst 52 Del rocket 4.3 15:54:21 16° WNW 15:58:49 83° SW 16:04:56 10° SE
Cosmos 1992 Rocket 4.0 15:54:41 12° NNW 15:59:38 88° ENE 16:04:57 10° SSE
Cosmos 968 Rocket 4.2 15:56:07 10° SW 16:00:42 32° W 16:05:17 10° NNW
Cosmos 1302 Rocket 4.5 15:57:32 16° NW 16:01:29 46° WSW 16:06:33 10° S
Meteor 2-4 Rocket 3.9 15:57:18 13° NNW 16:02:10 54° WSW 16:07:36 10° S
Thor Agena Rocket 3.8 15:57:24 10° NNE 16:02:41 77° ESE 16:08:02 10° S
Cosmos 2233 Rocket 4.0 15:56:59 10° SSW 16:03:13 67° W 16:09:19 10° N
Tiangong -0.6 16:02:56 18° NW 16:03:32 19° NNW 16:05:53 10° NNE
KORONAS-FOTON 3.7 16:00:42 14° NNW 16:03:42 61° W 16:07:17 10° S
Cosmos 1707 2.4 16:00:19 10° N 16:03:48 84° W 16:07:23 10° S
Cosmos 1484 Rocket 3.6 16:00:45 10° NNE 16:04:11 48° ESE 16:07:39 10° S
BlueWalker 3 4.5 16:02:43 10° SW 16:04:56 15° SSW 16:07:09 10° SSE
Cosmos 1633 Rocket 4.3 16:00:45 10° S 16:04:59 44° ESE 16:09:11 10° NNE
Cosmos 1805 Rocket 4.0 16:01:45 10° SSW 16:05:53 42° W 16:09:58 10° NNW
Cosmos 2219 Rocket 2.9 16:00:31 10° N 16:06:02 54° ENE 16:11:36 10° SSE
USA 290 4.4 16:04:52 10° S 16:07:49 31° ESE 16:10:42 10° NE
Cosmos 1842 3.1 16:06:28 11° NNW 16:09:56 62° W 16:13:33 10° S
ISS -1.4 16:10:02 10° N 16:12:21 17° NE 16:14:41 10° E
IRS-1D 3.9 16:08:01 10° N 16:12:57 44° W 16:17:51 10° SSW
H-2A R/B 3.0 16:11:38 10° NNW 16:16:08 28° W 16:20:35 10° SW
NOSS 3-4 (A) 3.8 16:10:05 10° SSW 16:17:10 76° SE 16:23:09 10° NE
NOSS 3-4 (C) 3.8 16:10:16 10° SSW 16:17:21 75° SE 16:23:18 10° NE
Cosmos 371 Rocket 3.5 16:14:14 10° SSW 16:18:56 50° WNW 16:23:35 10° N
Cosmos 1844 Rocket 2.8 16:18:02 10° SSW 16:23:38 57° WNW 16:29:10 10° N
FengYun 1-2 T 4.2 16:22:46 10° N 16:28:18 78° WNW 16:33:58 10° SSW
Cosmos 1315 Rocket 4.4 16:27:19 10° WNW 16:30:08 19° WSW 16:32:58 10° SSW
BREEZE-M DEB (TANK) 3.9 16:29:24 10° SW 16:32:06 28° SSE 16:33:51 10° E
SL-24 R/B - RUBIN 2 4.5 16:27:15 10° SW 16:32:26 46° WNW 16:38:11 10° N
SJ 16-02 3.4 16:31:56 10° W 16:32:31 10° W 16:33:07 10° W
UNK 4.3 16:28:44 10° SSE 16:33:22 61° E 16:37:58 10° N
USA 215 3.7 16:27:23 10° SE 16:33:48 55° SW 16:40:12 10° WNW
Cosmos 1470 2.9 16:30:22 10° SSW 16:33:55 46° W 16:37:23 10° NNW
Cosmos 2333 4.4 16:30:21 10° NNW 16:36:05 65° WSW 16:41:52 10° SSE
Helios 1A Rocket 3.7 16:33:16 10° S 16:36:37 31° WSW 16:39:54 10° NW
SJ-11-01 4.4 16:32:14 10° NNE 16:36:54 82° ESE 16:41:37 10° S
